CST,Max TemperatureF,Mean TemperatureF,Min TemperatureF,Max Dew PointF,MeanDew PointF,Min DewpointF,Max Humidity, Mean Humidity, Min Humidity, Max Sea Level PressureIn, Mean Sea Level PressureIn, Min Sea Level PressureIn, Max VisibilityMiles, Mean VisibilityMiles, Min VisibilityMiles, Max Wind SpeedMPH, Mean Wind SpeedMPH, Max Gust SpeedMPH,PrecipitationIn, CloudCover, Events, WindDirDegrees
2012-12-1,64,49,34,50,45,35,100,76,58,30.20,30.13,30.04,10,9,5,20,6,26,0.00,4,,151
2012-12-2,66,62,57,63,58,49,100,86,65,30.10,30.06,30.01,10,9,3,20,13,26,0.04,7,Rain,181
2012-12-3,73,67,61,63,60,53,100,81,60,30.10,30.05,30.00,10,10,7,25,12,32,0.00,3,,172
2012-12-4,61,48,36,61,48,36,99,86,58,30.28,30.12,30.01,10,10,7,14,8,18,0.05,4,Rain,257
2012-12-5,53,43,33,38,33,30,100,74,46,30.41,30.32,30.22,10,10,7,9,3,,0.00,0,,31
2012-12-6,51,40,30,47,36,28,96,80,59,30.22,30.08,29.98,10,10,5,7,3,,0.00,3,,108
2012-12-7,55,50,45,56,51,45,100,99,97,29.98,29.90,29.82,7,2,0,10,3,,0.03,7,Fog-Rain,130
2012-12-8,51,48,44,51,47,42,99,93,80,30.03,29.95,29.85,10,7,1,13,4,,0.01,8,Rain,324
2012-12-9,58,52,45,57,50,42,99,96,90,30.01,29.85,29.73,10,5,0,16,6,29,0.27,8,Rain-Thunderstorm,86
2012-12-10,43,38,32,41,31,27,92,86,81,30.05,29.91,29.80,10,10,10,17,10,24,0.00,7,,280
2012-12-11,39,32,25,28,24,22,92,75,50,30.27,30.15,30.05,10,10,10,13,7,17,0.00,1,,205
2012-12-12,47,34,21,30,25,20,98,76,40,30.40,30.35,30.27,10,10,7,9,2,,0.00,0,,147
2012-12-13,51,36,22,31,25,21,97,70,33,30.41,30.33,30.25,10,10,7,13,3,,0.00,0,,158
2012-12-14,56,41,26,35,29,24,92,64,35,30.29,30.21,30.10,10,10,10,10,3,,0.00,1,,153
2012-12-15,56,50,43,54,46,32,97,84,63,30.09,29.85,29.72,10,9,4,24,10,28,0.21,6,Rain,145
2012-12-16,56,45,34,54,46,35,100,94,82,29.77,29.73,29.70,10,6,0,14,7,18,0.00,1,Fog,206
2012-12-17,45,41,37,45,41,37,100,98,93,29.78,29.71,29.62,10,4,1,13,5,,0.14,8,Rain-Thunderstorm,329
2012-12-18,52,44,37,40,37,32,98,79,58,29.92,29.81,29.69,10,8,3,21,10,26,0.04,4,,211
2012-12-19,50,40,31,41,36,31,96,78,68,30.07,29.96,29.72,10,8,4,17,6,23,0.00,5,Rain,68
2012-12-20,59,44,30,54,38,24,94,76,58,29.77,29.49,29.26,10,9,1,37,20,50,0.20,8,Rain-Snow-Thunderstorm,200
2012-12-21,35,30,24,25,21,17,81,69,55,30.28,30.05,29.78,10,9,3,29,22,40,0.00,2,Snow,277
2012-12-22,39,28,18,23,19,13,85,69,44,30.32,30.20,30.00,10,10,10,8,5,,0.00,0,,189
2012-12-23,50,38,26,33,29,22,87,71,44,30.00,29.95,29.89,10,10,10,8,3,,0.00,0,,343
2012-12-24,42,36,30,35,30,26,86,81,70,30.11,29.92,29.80,10,8,4,17,6,20,0.00,8,,300
2012-12-25,36,33,30,29,27,26,88,76,68,30.24,30.13,29.92,10,8,4,25,10,32,0.00,8,,4
2012-12-26,36,34,32,32,29,27,99,84,72,30.09,29.88,29.72,10,6,0,28,20,36,0.02,8,Snow,336
2012-12-27,34,32,30,27,26,24,82,77,65,30.22,30.16,30.09,10,10,10,14,6,,0.00,8,,266
2012-12-28,35,33,31,32,30,27,99,86,77,30.14,30.01,29.84,10,6,1,10,4,,0.10,8,Snow,89
2012-12-29,33,24,16,32,25,12,100,83,69,30.35,30.08,29.84,10,7,1,20,7,28,0.08,7,Snow,280
2012-12-30,31,16,2,24,16,-2,95,83,64,30.49,30.40,30.29,10,7,1,12,5,,0.00,0,,165
2012-12-31,37,32,26,34,30,23,100,87,71,30.29,30.18,30.09,10,6,1,15,7,18,0.01,6,Rain-Snow,189